EW7665 Weather Reports


Display with metric or nautical units.
time (UTC)temp
F
wind
direction
speed
MPH
gust
MPH
rain 1hr
in
rain 24hr
in
rain mn
in
humidity
%
barometer
mb
20260506101547 47 130 0.0 0.0 0.00 0.16 0.00 64 1016.6
20260506100051 47 0 0.0 2.0 0.00 0.16 0.00 64 1017.2
20260506094548 47 80 1.0 1.0 0.00 0.16 0.00 64 1017.1
20260506093108 48 287 0.0 3.0 0.00 0.16 0.00 81 1017.3
20260506091558 48 46 5.0 5.0 0.00 0.16 0.00 81 1017.1
20260506090054 47 273 0.0 3.0 0.00 0.16 0.00 81 1016.7
20260506084546 46 268 1.0 1.0 0.00 0.16 0.00 79 1016.3
20260506083053 47 0 0.0 0.0 0.00 0.16 0.00 79 1015.9
20260506081551 47 0 0.0 0.0 0.00 0.16 0.00 79 1016.1
20260506073059 47 0 0.0 0.0 0.00 0.16 0.00 76 1016.0
20260506071547 46 269 0.0 0.0 0.00 0.16 0.00 77 1015.9
20260506061559 47 0 0.0 0.0 0.00 0.16 0.00 74 1014.9
20260506044556 48 90 1.0 7.0 0.01 0.16 0.16 69 1015.0
20260506043053 49 204 0.0 4.0 0.01 0.16 0.16 74 1015.5
20260506041605 50 295 0.0 2.0 0.00 0.15 0.15 74 1015.5
20260506040056 50 334 1.0 2.0 0.00 0.15 0.15 74 1015.5
20260506034551 50 0 0.0 0.0 0.00 0.15 0.15 76 1015.2
20260506033052 51 0 0.0 0.0 0.00 0.15 0.15 76 1015.0
20260506031553 51 0 0.0 0.0 0.00 0.15 0.15 76 1014.7
20260506030049 51 0 0.0 0.0 0.00 0.15 0.15 70 1014.6
20260506024551 51 0 0.0 0.0 0.00 0.15 0.15 70 1014.0
20260506023056 51 0 0.0 0.0 0.00 0.15 0.15 70 1013.5
20260506021549 52 0 0.0 0.0 0.00 0.15 0.15 69 1012.7
20260506020116 52 0 0.0 0.0 0.00 0.15 0.15 69 1012.7
20260506014547 52 0 0.0 0.0 0.00 0.15 0.15 69 1012.5
20260506013050 53 0 0.0 0.0 0.00 0.15 0.15 61 1012.5
20260506011551 53 0 0.0 0.0 0.00 0.15 0.15 61 1012.5
20260506010050 54 107 0.0 0.0 0.00 0.15 0.15 61 1012.3
20260506004550 54 0 0.0 0.0 0.00 0.15 0.15 52 1012.2
20260506003048 55 0 0.0 0.0 0.00 0.15 0.15 52 1012.3
20260506001602 55 0 0.0 0.0 0.00 0.15 0.15 52 1012.2
20260506000111 55 0 0.0 0.0 0.00 0.15 0.15 48 1011.9
20260505234556 55 23 0.0 2.0 0.00 0.15 0.15 48 1011.8
20260505233053 55 61 2.0 4.0 0.00 0.15 0.15 48 1011.8
20260505231557 55 48 0.0 3.0 0.00 0.15 0.15 51 1011.8
20260505230051 56 241 1.0 1.0 0.00 0.15 0.15 51 1011.9
20260505224551 56 325 0.0 1.0 0.00 0.15 0.15 51 1011.8
20260505223059 56 311 1.0 2.0 0.00 0.15 0.15 53 1011.9
20260505221601 55 0 0.0 2.0 0.00 0.15 0.15 53 1011.7
20260505220105 55 281 1.0 2.0 0.00 0.15 0.15 60 1011.9
20260505214559 55 294 1.0 3.0 0.00 0.15 0.15 60 1011.9
20260505213055 55 306 0.0 2.0 0.00 0.15 0.15 60 1012.2
20260505211626 55 288 2.0 2.0 0.00 0.15 0.15 70 1012.4
20260505210053 54 290 2.0 4.0 0.00 0.15 0.15 70 1012.3
20260505204600 54 277 3.0 3.0 0.00 0.15 0.15 70 1012.4
20260505203052 53 272 4.0 7.0 0.00 0.15 0.15 76 1012.3
20260505201551 53 287 2.0 3.0 0.00 0.15 0.15 76 1012.6
20260505200048 52 283 1.0 2.0 0.00 0.15 0.15 76 1012.9
20260505194552 52 287 0.0 2.0 0.00 0.15 0.15 75 1012.7
20260505193046 51 278 0.0 3.0 0.00 0.15 0.15 75 1012.9
20260505191552 52 271 1.0 1.0 0.00 0.15 0.15 75 1013.0
20260505190055 52 281 0.0 1.0 0.00 0.15 0.15 76 1013.1
20260505184556 52 0 1.0 1.0 0.00 0.15 0.15 76 1013.1
20260505183055 50 0 0.0 2.0 0.00 0.15 0.15 76 1013.3
20260505181636 50 0 0.0 2.0 0.00 0.15 0.15 79 1013.3
20260505180103 50 88 3.0 3.0 0.00 0.15 0.15 79 1013.5
20260505174553 49 126 2.0 2.0 0.00 0.15 0.15 79 1013.5
20260505173050 49 310 0.0 2.0 0.00 0.15 0.15 82 1013.6
20260505171559 48 81 1.0 1.0 0.00 0.15 0.15 82 1013.6
20260505170052 48 65 0.0 1.0 0.00 0.15 0.15 82 1013.5
20260505164549 48 77 0.0 0.0 0.00 0.15 0.15 84 1013.6
20260505163050 47 0 0.0 1.0 0.00 0.15 0.15 84 1013.7
20260505161552 47 88 0.0 1.0 0.01 0.15 0.15 84 1013.1
20260505153053 46 98 1.0 3.0 0.08 0.15 0.15 85 1012.7
20260505151554 46 113 2.0 4.0 0.09 0.14 0.14 85 1012.9
20260505124607 48 89 2.0 4.0 0.05 0.05 0.05 80 1011.4
20260505123113 48 88 3.0 3.0 0.04 0.04 0.04 66 1010.9
20260505121550 49 78 4.0 4.0 0.04 0.04 0.04 66 1010.7
20260505120112 51 52 0.0 1.0 0.02 0.02 0.02 66 1011.0
20260505114555 51 0 0.0 2.0 0.00 0.00 0.00 49 1010.4
20260505113051 53 78 4.0 4.0 0.00 0.00 0.00 49 1010.0
20260505111550 54 74 1.0 1.0 0.00 0.00 0.00 49 1010.1
20260505110108 54 105 8.0 8.0 0.00 0.00 0.00 47 1008.7